Etusivu
METAR-TAF:

METAR-TAF

Lentoasemat :

Harry P. Williams Memorial Airport

Patterson, Louisiana, Yhdysvallat

Leveyspiiri: 29-43N, Pituuspiiri: 091-20W, korkeus merenpinnasta: 3 m

Tämänhetkinen sää

Tämä raportti tehtiin 37 minuuttia sitten, kello 20.56 UTC
Tuuli 4 kn luoteesta
Lämpötila 16°C
Kosteus 29%
Ilmanpaine 1019 hPa
Näkyvyys: 16.1 km
selkeää

METAR: KPTN 162056Z AUTO 32004KT 10SM CLR 16/M02 A3009 RMK AO2 SLP191 T01611017 56033

Aika: 15:33 (21:33 UTC)


TAF: puuttuu

Säähavainnot ja -ennusteet yli 4000 lentoasemalta (METAR- ja TAF-raportit).

Käytössä olevat sääasemat on merkitty karttaan keltaisilla ja punaisilla pisteillä.

Aseta hiiri pisteen päälle nähdäksesi sääaseman nimen.

Klikkaa sitten nähdäksesi säähavainnot ja -ennusteet.

Kartan vaihtaminen: klikkaa mustalla rastilla varustettuja vihreitä pisteitä, niin voit zoomata sisään; viivalla varustettua vihreää pistettä, niin voit zoomata ulos tai vihreitä nuolia, niin pääset viereisille kartoille.


METAR-TAF: